Weather History for KAAT - January, 2014

Change the Weather History Date:

Monday, January 13, 2014

  Actual Average Record
Temperature  
Mean Temperature 32 °F 30 °F  
Max Temperature 51 °F 41 °F 62 °F (1996)
Min Temperature 13 °F 18 °F -29 °F (1917)
Degree Days  
Heating Degree Days 33 35  
Month to date heating degree days 416 467  
Since 1 July heating degree days 3433 3377  
Cooling Degree Days 0 0  
Month to date cooling degree days 0 0  
Year to date cooling degree days 0 0  
Moisture  
Dew Point 18 °F    
Average Humidity 68    
Maximum Humidity 96    
Minimum Humidity 39    
Precipitation  
Precipitation 0.00 in 0.05 in 1.20 in (1980)
Month to date precipitation 0.02 0.87  
Year to date precipitation 0.02 0.87  
Sea Level Pressure  
Sea Level Pressure 30.67 in    
Wind  
Wind Speed 1 mph (NNW)    
Max Wind Speed 8 mph    
Max Gust Speed 10 mph    
Visibility 7 miles    
Events      
T = Trace of Precipitation, MM = Missing Value Source: NWS Daily Summary

Daily Weather History Graph

Daily Weather History Graph

Search for Another Location

Airport or City:

Trip Planner

Search our weather history database for the weather conditions in past years. The results will help you decide how hot, cold, wet, or windy it might be!

Date:

Astronomy

Jan. 13, 2014 Rise Set
Actual Time 7:27 AM PST 4:55 PM PST
Civil Twilight 6:56 AM PST 5:25 PM PST
Nautical Twilight 6:22 AM PST 6:00 PM PST
Astronomical Twilight 5:48 AM PST 6:33 PM PST
Moon 3:14 PM PST (1/13) 5:19 AM PST (1/13)
Length of Visible Light 10h 29m
Length of Day
9h 28m
Waxing Gibbous, 95% of the Moon is Illuminated
Jan 13
Waxing Gibbous
Jan 15
Full
Jan 23
Last Quarter
Jan 30
New
Feb 6
First Quarter

Hourly Weather History & Observations

Time (PST) Temp. Windchill Dew Point Humidity Pressure Visibility Wind Dir Wind Speed Gust Speed Precip Events Conditions
12:55 AM 16.0 °F 10.4 °F 12.0 °F 84% 30.61 in 10.0 mi NW 3.5 mph - N/A   Clear
1:55 AM 18.0 °F 12.7 °F 15.1 °F 88% 30.62 in 4.0 mi SE 3.5 mph - N/A   Clear
2:55 AM 16.0 °F - 14.0 °F 92% 30.63 in 4.0 mi Calm Calm - N/A   Clear
3:55 AM 14.0 °F - 12.0 °F 92% 30.65 in 6.0 mi Calm Calm - N/A   Clear
4:55 AM 15.1 °F - 10.9 °F 84% 30.65 in 7.0 mi Calm Calm - N/A   Clear
5:55 AM 14.0 °F - 10.9 °F 88% 30.67 in 10.0 mi Calm Calm - N/A   Clear
6:55 AM 15.1 °F 9.4 °F 12.0 °F 88% 30.69 in 6.0 mi North 3.5 mph - N/A   Clear
7:55 AM 15.1 °F - 12.0 °F 88% 30.71 in 4.0 mi Calm Calm - N/A   Clear
8:55 AM 21.0 °F - 17.1 °F 85% 30.73 in 7.0 mi Calm Calm - N/A   Clear
9:55 AM 27.0 °F - 23.0 °F 85% 30.72 in 6.0 mi Calm Calm - N/A   Clear
10:55 AM 35.1 °F 32.2 °F 26.1 °F 70% 30.68 in 10.0 mi NNW 3.5 mph - N/A   Clear
11:55 AM 42.1 °F - 27.0 °F 55% 30.64 in 10.0 mi Calm Calm - N/A   Clear
12:55 PM 45.0 °F - 27.0 °F 49% 30.63 in 10.0 mi Calm Calm - N/A   Clear
1:55 PM 50.0 °F - 28.0 °F 43% 30.61 in 10.0 mi NNE 5.8 mph - N/A   Clear
2:55 PM 50.0 °F - 27.0 °F 41% 30.62 in 10.0 mi NW 3.5 mph - N/A   Clear
3:55 PM 50.0 °F - 27.0 °F 41% 30.63 in 10.0 mi Calm Calm - N/A   Clear
4:55 PM 44.1 °F - 28.0 °F 53% 30.66 in 10.0 mi Calm Calm - N/A   Unknown
6:55 PM 26.1 °F - 21.0 °F 81% 30.72 in 10.0 mi Calm Calm - N/A   Clear
7:55 PM 28.9 °F - 24.1 °F 82% 30.73 in 7.0 mi Calm Calm - N/A   Clear
8:55 PM 21.9 °F - 18.0 °F 85% 30.73 in 10.0 mi Calm Calm - N/A   Clear
9:55 PM 19.0 °F 12.3 °F 15.1 °F 85% 30.75 in 6.0 mi SSE 4.6 mph - N/A   Clear
10:42 PM 19.0 °F 13.9 °F 16.0 °F 88% 30.64 in 2.0 mi North 3.5 mph - N/A   Clear
10:52 PM 17.6 °F 10.7 °F 14.0 °F 86% 30.63 in 4.0 mi North 4.6 mph - N/A   Clear
10:55 PM 18.0 °F 11.1 °F 15.1 °F 88% 30.74 in 4.0 mi NNW 4.6 mph - N/A   Clear
11:26 PM 19.0 °F - 17.1 °F 92% 30.63 in 2.5 mi Calm Calm - N/A   Clear
11:45 PM 15.1 °F - 10.9 °F 84% 30.63 in 5.0 mi Calm Calm - N/A   Clear
11:55 PM 17.1 °F - 12.9 °F 84% 30.72 in 10.0 mi Calm Calm - N/A   Clear